Flight Track Log - Related Links

Times and Time Zones

All times are in EDT time to prevent confusion due to time zone crossing. See the SWA1130 flight status page for this flight to view local times or setup timezone preferences in your user account.

Time Position Orientation Groundspeed Altitude Reporting Facility
EDT Latitude Longitude Course Direction KTS MPH feet Rate Location/Type
Wed 06:05:56 AM 42.9500 -71.4333 36° Northeast 168 193 1,100  Level KA90
Wed 06:06:19 AM 42.9667 -71.4167 36° Northeast 195 224 2,500 4,083 Climbing KA90
Wed 06:07:08 AM 43.0042 -71.3867 30° Northeast 212 244 6,000 3,633 Climbing Boston Center
Wed 06:08:08 AM 43.0261 -71.2897 73° East 263 303 9,100 2,800 Climbing Boston Center
Wed 06:09:08 AM 43.0458 -71.1928 74° East 288 331 11,600 3,300 Climbing Boston Center
Wed 06:10:08 AM 43.0717 -71.0672 74° East 305 351 15,700 3,400 Climbing Boston Center
Wed 06:11:08 AM 43.0492 -70.9542 105° East 328 377 18,400 2,900 Climbing Boston Center
Wed 06:12:08 AM 42.9442 -70.8831 154° Southeast 314 361 21,500 2,300 Climbing Boston Center
Wed 06:13:08 AM 42.8231 -70.8633 173° South 373 429 23,000 1,150 Climbing Boston Center
Wed 06:14:08 AM 42.7000 -70.8608 179° South 412 474 23,800 950 Climbing Boston Center
Wed 06:15:08 AM 42.5817 -70.8919 191° South 424 488 24,900 1,550 Climbing Boston Center
Wed 06:16:08 AM 42.5269 -71.0258 241° Southwest 367 422 26,900 2,100 Climbing Boston Center
Wed 06:17:08 AM 42.4808 -71.1706 247° West 385 443 29,100 2,450 Climbing Boston Center
Wed 06:18:08 AM 42.4425 -71.2781 244° Southwest 397 457 31,800 2,450 Climbing Boston Center
Wed 06:19:08 AM 42.3897 -71.4422 247° West 402 463 34,000 1,100 Climbing Boston Center
Wed 06:20:08 AM 42.3389 -71.5750 243° Southwest 402 463 34,000  Level Boston Center
Wed 06:21:08 AM 42.2917 -71.7075 244° Southwest 402 463 34,000  Level Boston Center
Wed 06:22:08 AM 42.2444 -71.8372 244° Southwest 402 463 34,000  Level Boston Center
Wed 06:23:08 AM 42.1972 -71.9664 244° Southwest 396 456 34,000  Level Boston Center
Wed 06:24:08 AM 42.1519 -72.0983 245° Southwest 396 456 34,000  Level Boston Center
Wed 06:25:08 AM 42.1064 -72.2303 245° Southwest 396 456 34,000  Level Boston Center
Wed 06:26:08 AM 42.0586 -72.3561 243° Southwest 391 450 34,000  Level Boston Center
Wed 06:27:08 AM 42.0128 -72.4903 245° Southwest 391 450 34,000  Level Boston Center
Wed 06:28:08 AM 41.9625 -72.6244 243° Southwest 391 450 34,000  Level Boston Center
Wed 06:29:08 AM 41.9061 -72.7358 236° Southwest 391 450 34,000  Level Boston Center
Wed 06:30:08 AM 41.8203 -72.8525 225° Southwest 421 484 34,000 -200 Level Boston Center
Wed 06:31:08 AM 41.7239 -72.9881 226° Southwest 447 514 33,600 -700 Descending Boston Center
Wed 06:32:08 AM 41.6356 -73.1039 224° Southwest 447 514 32,600 -800 Descending Boston Center
Wed 06:33:08 AM 41.5494 -73.2250 226° Southwest 447 514 32,000 -300 Descending Boston Center
Wed 06:34:08 AM 41.4758 -73.3211 224° Southwest 442 509 32,000  Level Boston Center
Wed 06:35:08 AM 41.3872 -73.4417 226° Southwest 448 516 32,000  Level Boston Center
Wed 06:36:08 AM 41.3028 -73.5564 226° Southwest 448 516 32,000  Level Boston Center
Wed 06:38:29 AM 41.1256 -73.8478 231° Southwest 448 516 32,000  Level New Center
Wed 06:39:31 AM 41.0494 -73.9708 231° Southwest 448 516 32,000  Level New Center
Wed 06:40:31 AM 40.9775 -74.0939 232° Southwest 437 503 32,000  Level New Center
Wed 06:41:30 AM 40.8964 -74.2272 231° Southwest 431 496 32,000 -1,462 Level New Center
Wed 06:42:30 AM 40.8200 -74.3494 230° Southwest 437 503 29,100 -2,000 Descending New Center
Wed 06:43:30 AM 40.7539 -74.4639 233° Southwest 437 503 28,000 -545 Descending New Center
Wed 06:44:31 AM 40.6769 -74.5883 231° Southwest 437 503 28,000 -397 Level New Center
Wed 06:45:31 AM 40.6019 -74.7125 232° Southwest 437 503 27,200 -893 Descending New Center
Wed 06:46:32 AM 40.5208 -74.8308 228° Southwest 437 503 26,200 -1,017 Descending New Center
Wed 06:47:29 AM 40.4397 -74.9458 227° Southwest 437 503 25,200 -1,000 Descending New Center
Wed 06:48:32 AM 40.3564 -75.0633 227° Southwest 442 509 24,200 -1,000 Descending New Center
Wed 06:49:29 AM 40.2772 -75.1783 228° Southwest 442 509 23,200 -1,026 Descending New Center
Wed 06:50:29 AM 40.1958 -75.2900 226° Southwest 437 503 22,200 -992 Descending New Center
Wed 06:51:30 AM 40.1186 -75.3989 227° Southwest 426 490 21,200 -984 Descending New Center
Wed 06:52:31 AM 40.0414 -75.5050 226° Southwest 421 484 20,200 -1,000 Descending New Center
Wed 06:53:30 AM 39.9844 -75.6258 238° Southwest 411 473 19,200 -1,041 Descending New Center
Wed 06:54:32 AM 39.9183 -75.7592 237° Southwest 396 456 18,100 -1,261 Descending New Center
Wed 06:55:29 AM 39.8533 -75.8656 232° Southwest 396 456 16,700 -1,531 Descending New Center
Wed 06:57:00 AM 39.7352 -75.9833 180° South  Level FlightAware
Wed 06:58:35 AM 39.6500 -76.1667 180° South 310 357 11,900  Level Potomac TRACON
Wed 06:59:35 AM 39.5833 -76.2333 218° Southwest 297 342 10,900 -1,000 Descending Potomac TRACON
Wed 07:00:29 AM 39.5333 -76.2833 218° Southwest 293 337 10,000 -1,211 Descending Potomac TRACON
Wed 07:01:29 AM 39.4667 -76.3500 218° Southwest 287 330 8,600 -1,450 Descending Potomac TRACON
Wed 07:02:29 AM 39.4167 -76.4167 226° Southwest 277 319 7,100 -1,579 Descending Potomac TRACON
Wed 07:03:23 AM 39.3500 -76.4667 210° Southwest 286 329 5,600 -1,400 Descending Potomac TRACON
Wed 07:04:29 AM 39.2667 -76.4500 171° South 282 325 4,300 -1,050 Descending Potomac TRACON
Wed 07:05:23 AM 39.2000 -76.4500 180° South 272 313 3,500 -684 Descending Potomac TRACON
Wed 07:06:23 AM 39.1333 -76.4333 169° South 241 277 3,000 -263 Descending Potomac TRACON
Wed 07:07:17 AM 39.1000 -76.4667 218° Southwest 198 228 3,000 -474 Level Potomac TRACON
Wed 07:08:17 AM 39.1000 -76.5333 270° West 183 211 2,100 -900 Descending Potomac TRACON

Login

Don't have an account? Register now (free) for customized features, flight alerts, and more!